Time,TemperatureF,DewpointF,PressureIn,WindDirection,WindDirectionDegrees,WindSpeedMPH,WindSpeedGustMPH,Humidity,HourlyPrecipIn,Conditions,Clouds,dailyrainin,SoftwareType,DateUTC
2013-04-01 02:46:00,42.7,39.7,29.69,West,262,5.0,5.0,89,0.00,,,0.00,Wunderground v.1.15,2013-04-01 06:46:00,
2013-04-01 08:51:00,39.4,32.5,29.74,NW,315,4.0,7.0,76,0.00,,,0.02,Wunderground v.1.15,2013-04-01 12:51:00,
2013-04-01 08:56:00,39.6,32.7,29.74,WNW,302,4.0,7.0,76,0.00,,,0.02,Wunderground v.1.15,2013-04-01 12:56:00,
2013-04-01 09:02:00,39.5,32.6,29.74,NNW,338,4.0,5.0,76,0.00,,,0.02,Wunderground v.1.15,2013-04-01 13:02:00,
2013-04-01 09:07:00,39.5,32.6,29.75,NNW,332,4.0,6.0,76,0.00,,,0.02,Wunderground v.1.15,2013-04-01 13:07:00,
2013-04-01 09:12:00,39.5,32.6,29.75,NNW,339,4.0,4.0,76,0.00,,,0.02,Wunderground v.1.15,2013-04-01 13:12:00,
2013-04-01 09:23:00,39.2,31.9,29.75,NW,306,4.0,5.0,75,0.00,,,0.02,Wunderground v.1.15,2013-04-01 13:23:00,
2013-04-01 09:28:00,39.2,31.6,29.75,NNW,345,3.0,5.0,74,0.00,,,0.02,Wunderground v.1.15,2013-04-01 13:28:00,
2013-04-01 09:33:00,39.2,31.6,29.76,NW,306,4.0,5.0,74,0.00,,,0.02,Wunderground v.1.15,2013-04-01 13:33:00,
2013-04-01 09:39:00,38.9,31.0,29.76,WNW,293,4.0,6.0,73,0.00,,,0.02,Wunderground v.1.15,2013-04-01 13:39:00,
2013-04-01 09:45:00,38.5,30.9,29.76,NNW,341,4.0,10.0,74,0.00,,,0.02,Wunderground v.1.15,2013-04-01 13:45:00,
2013-04-01 09:51:00,38.3,31.1,29.77,WNW,290,4.0,7.0,75,0.00,,,0.02,Wunderground v.1.15,2013-04-01 13:51:00,
2013-04-01 09:57:00,38.2,31.6,29.77,NW,318,4.0,7.0,77,0.00,,,0.02,Wunderground v.1.15,2013-04-01 13:57:00,
2013-04-01 10:02:00,38.0,31.4,29.77,NW,322,3.0,4.0,77,0.00,,,0.02,Wunderground v.1.15,2013-04-01 14:02:00,
2013-04-01 10:08:00,37.7,31.8,29.78,NNW,346,3.0,4.0,79,0.00,,,0.02,Wunderground v.1.15,2013-04-01 14:08:00,
2013-04-01 10:13:00,37.1,32.1,29.78,North,354,2.0,3.0,82,0.00,,,0.02,Wunderground v.1.15,2013-04-01 14:13:00,
2013-04-01 10:18:00,36.4,32.3,29.78,NNW,337,2.0,3.0,85,0.00,,,0.02,Wunderground v.1.15,2013-04-01 14:18:00,
2013-04-01 10:23:00,35.7,31.9,29.79,NNW,328,2.0,3.0,86,0.00,,,0.02,Wunderground v.1.15,2013-04-01 14:23:00,
2013-04-01 10:28:00,35.4,32.2,29.79,NNW,335,3.0,3.0,88,0.00,,,0.02,Wunderground v.1.15,2013-04-01 14:28:00,
2013-04-01 10:34:00,35.0,31.8,29.80,NNW,345,3.0,4.0,88,0.00,,,0.02,Wunderground v.1.15,2013-04-01 14:34:00,
2013-04-01 10:39:00,34.7,31.8,29.80,NNW,330,2.0,4.0,89,0.00,,,0.02,Wunderground v.1.15,2013-04-01 14:39:00,
2013-04-01 10:44:00,34.4,31.8,29.80,NW,319,2.0,4.0,90,0.00,,,0.02,Wunderground v.1.15,2013-04-01 14:44:00,
2013-04-01 10:50:00,34.4,31.8,29.80,NNW,336,2.0,2.0,90,0.00,,,0.02,Wunderground v.1.15,2013-04-01 14:50:00,
2013-04-01 10:55:00,34.4,31.8,29.80,SW,227,3.0,3.0,90,0.00,,,0.02,Wunderground v.1.15,2013-04-01 14:55:00,
2013-04-01 11:02:00,34.7,31.8,29.81,NNW,341,2.0,3.0,89,0.00,,,0.02,Wunderground v.1.15,2013-04-01 15:02:00,
2013-04-01 11:09:00,34.4,31.2,29.81,NW,322,3.0,6.0,88,0.00,,,0.02,Wunderground v.1.15,2013-04-01 15:09:00,
2013-04-01 11:14:00,33.9,31.0,29.81,NNW,335,4.0,5.0,89,0.00,,,0.02,Wunderground v.1.15,2013-04-01 15:14:00,
2013-04-01 11:19:00,33.6,31.0,29.81,SW,223,3.0,9.0,90,0.00,,,0.02,Wunderground v.1.15,2013-04-01 15:19:00,
2013-04-01 11:25:00,33.4,31.1,29.81,North,1,3.0,5.0,91,0.00,,,0.02,Wunderground v.1.15,2013-04-01 15:25:00,
2013-04-01 11:30:00,33.5,31.4,29.81,NNW,333,2.0,2.0,92,0.00,,,0.02,Wunderground v.1.15,2013-04-01 15:30:00,
2013-04-01 11:36:00,33.7,31.4,29.82,NNW,336,3.0,6.0,91,0.00,,,0.02,Wunderground v.1.15,2013-04-01 15:36:00,
2013-04-01 11:42:00,33.8,31.2,29.82,NW,318,3.0,6.0,90,0.00,,,0.02,Wunderground v.1.15,2013-04-01 15:42:00,
2013-04-01 11:47:00,34.0,31.4,29.82,NW,311,3.0,6.0,90,0.00,,,0.02,Wunderground v.1.15,2013-04-01 15:47:00,
2013-04-01 11:53:00,34.3,31.9,29.82,SW,236,2.0,5.0,91,0.00,,,0.02,Wunderground v.1.15,2013-04-01 15:53:00,
2013-04-01 11:59:00,34.3,31.9,29.82,NW,309,2.0,5.0,91,0.00,,,0.02,Wunderground v.1.15,2013-04-01 15:59:00,
2013-04-01 12:04:00,34.0,31.6,29.82,NW,311,3.0,7.0,91,0.00,,,0.03,Wunderground v.1.15,2013-04-01 16:04:00,
2013-04-01 12:10:00,33.9,31.6,29.82,NNW,341,2.0,2.0,91,0.00,,,0.03,Wunderground v.1.15,2013-04-01 16:10:00,
2013-04-01 12:15:00,33.7,31.4,29.83,NW,311,2.0,4.0,91,0.00,,,0.03,Wunderground v.1.15,2013-04-01 16:15:00,
2013-04-01 12:21:00,32.9,30.8,29.83,NNW,335,2.0,2.0,92,0.00,,,0.03,Wunderground v.1.15,2013-04-01 16:21:00,
2013-04-01 12:26:00,32.3,30.5,29.84,North,350,2.0,2.0,93,0.00,,,0.03,Wunderground v.1.15,2013-04-01 16:26:00,
2013-04-01 12:32:00,31.4,29.3,29.84,North,352,1.0,2.0,92,0.00,,,0.03,Wunderground v.1.15,2013-04-01 16:32:00,
2013-04-01 12:37:00,30.9,29.1,29.84,NNW,330,2.0,5.0,93,0.00,,,0.03,Wunderground v.1.15,2013-04-01 16:37:00,
2013-04-01 12:42:00,30.4,28.4,29.85,North,1,3.0,5.0,92,0.00,,,0.03,Wunderground v.1.15,2013-04-01 16:42:00,
2013-04-01 12:48:00,30.5,28.7,29.85,NW,320,2.0,5.0,93,0.00,,,0.03,Wunderground v.1.15,2013-04-01 16:48:00,
2013-04-01 12:53:00,30.3,28.5,29.85,NW,324,1.0,2.0,93,0.00,,,0.03,Wunderground v.1.15,2013-04-01 16:53:00,
2013-04-01 12:58:00,30.4,28.6,29.85,NNW,341,2.0,3.0,93,0.00,,,0.03,Wunderground v.1.15,2013-04-01 16:58:00,
2013-04-01 13:03:00,30.6,28.8,29.85,NW,326,1.0,6.0,93,0.00,,,0.03,Wunderground v.1.15,2013-04-01 17:03:00,
2013-04-01 13:09:00,30.5,28.5,29.85,NNW,345,2.0,6.0,92,0.00,,,0.03,Wunderground v.1.15,2013-04-01 17:09:00,
2013-04-01 13:15:00,30.7,28.9,29.85,North,6,1.0,2.0,93,0.00,,,0.03,Wunderground v.1.15,2013-04-01 17:15:00,
2013-04-01 13:21:00,30.8,28.5,29.86,NNW,345,1.0,2.0,91,0.00,,,0.03,Wunderground v.1.15,2013-04-01 17:21:00,
2013-04-01 13:27:00,30.9,28.6,29.86,NNW,345,2.0,3.0,91,0.00,,,0.03,Wunderground v.1.15,2013-04-01 17:27:00,
2013-04-01 13:32:00,30.9,28.3,29.86,NNW,338,2.0,5.0,90,0.00,,,0.03,Wunderground v.1.15,2013-04-01 17:32:00,
2013-04-01 13:38:00,31.5,29.2,29.86,North,353,2.0,5.0,91,0.00,,,0.03,Wunderground v.1.15,2013-04-01 17:38:00,
2013-04-01 13:44:00,31.5,28.6,29.86,North,356,2.0,5.0,89,0.00,,,0.03,Wunderground v.1.15,2013-04-01 17:44:00,
2013-04-01 13:49:00,32.3,30.0,29.86,NNW,342,2.0,5.0,91,0.00,,,0.03,Wunderground v.1.15,2013-04-01 17:49:00,
2013-04-01 13:54:00,33.1,30.2,29.86,NNW,335,1.0,1.0,89,0.00,,,0.03,Wunderground v.1.15,2013-04-01 17:54:00,
2013-04-01 14:01:00,34.0,30.3,29.85,NNW,332,1.0,1.0,86,0.00,,,0.03,Wunderground v.1.15,2013-04-01 18:01:00,
2013-04-01 14:06:00,34.3,30.3,29.86,NNW,330,2.0,2.0,85,0.00,,,0.03,Wunderground v.1.15,2013-04-01 18:06:00,
2013-04-01 14:12:00,34.7,30.1,29.85,NNW,345,2.0,4.0,83,0.00,,,0.03,Wunderground v.1.15,2013-04-01 18:12:00,
2013-04-01 14:17:00,35.0,30.4,29.86,NNW,328,2.0,4.0,83,0.00,,,0.03,Wunderground v.1.15,2013-04-01 18:17:00,
2013-04-01 14:23:00,35.6,30.6,29.85,North,357,1.0,2.0,82,0.00,,,0.03,Wunderground v.1.15,2013-04-01 18:23:00,